Location: Unspecified
(42.9300°N, 71.1866°W)
Time: 14:56:55
(UTC-04:00)

Genesis I - Visible Passes

Search period start: 24 April 2017 00:00
Search period end: 04 May 2017 00:00
Orbit: 508 x 523 km, 64.5° (Epoch: 23 April)

Date Brightness Start Highest point End Pass type
(mag) Time Alt. Az. Time Alt. Az. Time Alt. Az.
24 Apr 6.5 01:44:03 10° NNE 01:45:04 11° NE 01:46:05 10° NE visible
24 Apr 3.5 03:19:33 10° NNW 03:23:31 68° NE 03:25:24 29° SE visible
24 Apr 5.2 04:59:22 10° W 04:59:58 11° W 04:59:58 11° W visible
24 Apr 6.4 20:27:43 10° WNW 20:29:45 14° NW 20:31:47 10° N visible
25 Apr 6.5 01:28:12 10° NNE 01:29:19 11° NE 01:30:27 10° NE visible
25 Apr 4.0 03:03:48 10° NNW 03:06:44 46° NNW 03:06:44 46° NNW visible
25 Apr 6.4 20:12:02 10° WNW 20:14:00 13° NW 20:15:58 10° N visible
26 Apr 6.4 01:12:21 10° NNE 01:13:35 11° NE 01:14:49 10° NE visible
26 Apr 5.0 02:48:02 10° NNW 02:49:52 26° NNW 02:49:52 26° NNW visible
27 Apr 6.3 00:56:31 10° NNE 00:57:50 11° NE 00:58:36 11° NE visible
27 Apr 5.4 02:32:16 10° NNW 02:33:31 19° NNW 02:33:31 19° NNW visible
28 Apr 6.3 00:40:41 10° NNE 00:42:06 12° NE 00:42:30 11° NE visible
28 Apr 5.7 02:16:30 10° NNW 02:17:26 17° NNW 02:17:26 17° NNW visible
29 Apr 6.2 00:24:51 10° NNE 00:26:20 12° NE 00:26:34 12° NE visible
29 Apr 5.8 02:00:44 10° NNW 02:01:30 15° NNW 02:01:30 15° NNW visible
30 Apr 6.2 00:09:01 10° NNE 00:10:35 12° NE 00:10:44 12° NE visible
30 Apr 5.9 01:44:57 10° NNW 01:45:41 15° NNW 01:45:41 15° NNW visible
30 Apr 6.1 23:53:12 10° NNE 23:54:49 12° NE 23:54:59 12° NE visible
01 May 5.9 01:29:11 10° NNW 01:29:56 15° NNW 01:29:56 15° NNW visible
01 May 6.0 23:37:22 10° N 23:39:04 12° NE 23:39:17 12° NE visible
02 May 5.9 01:13:25 10° NNW 01:14:15 16° NNW 01:14:15 16° NNW visible
02 May 6.0 23:21:32 10° N 23:23:18 12° NE 23:23:38 12° NE visible
03 May 5.9 00:57:37 10° NNW 00:58:35 17° NNW 00:58:35 17° NNW visible
03 May 5.9 23:05:42 10° N 23:07:32 13° NE 23:08:01 12° NE visible
